Voltar ao catálogo

KUIPER-00520

AtivoComunicaçõesLEO
NORAD 69601·PAYLOAD·🇺🇸 United States

Lançado Jun 17, 2026 de Guiana Space Centre

Loading…

Próximas Passagens (próximas 24 horas)

TLE

AtualizadoSource: CelesTrak SupGP

Época: Sep 14, 2026, 22:52 UTC

1 69601C 26140K   26257.95321759 -.00000686  00000+0 -97098-4 0  2573
2 69601  51.9021 340.5767 0001019 173.8857 118.5727 14.76598627    11

Acompanhe KUIPER-00520 em tempo real com AllMySat

Download on the App Store